{"data":{"norad_id":64588,"intl_designator":"2025-135BN","name":"BIFROST-DNK","alt_names":[],"object_type":"PAYLOAD","status":"ACTIVE","operator":null,"country":"DEN","launch_date":"2025-06-23","launch_site_code":"AFWTR","launch_vehicle":null,"mission":null,"orbit_class":"UNKNOWN","rcs_meters":null,"size_class":null,"mass_kg":null,"dimensions":null,"purposes":[],"wikipedia_slug":null,"has_3d_model":false,"image_url":null,"decayed_at":null,"tle_current":{"epoch":"2026-09-21T20:46:51.822912Z","epoch_age_seconds":59704,"freshness":"FRESH","line1":"1 64588U 25135BN  26264.86587758  .00001865  00000+0  17569-3 0  9991","line2":"2 64588  97.7827  18.7181 0004970  41.9118 318.2483 14.95022823 68350","mean_motion":14.95022823,"eccentricity":0.000497,"inclination_deg":97.7827,"raan_deg":18.7181,"arg_perigee_deg":41.9118,"mean_anomaly_deg":318.2483,"bstar":0.00017569,"rev_number":6835,"period_min":96.319599797842,"perigee_km":578.84257338774,"apogee_km":585.76124966579,"semimajor_km":6960.4389115268,"source":"CELESTRAK","updated_at":"2026-09-22T09:00:29.856356Z"}}}